HUSKYSAT-1 (45119 NORAD) Tracking and Keplerian Element Data

This shows tracking and keplerian element data for the satellite.

Feedback or suggestion? Click here.




ElementValue
Catalog45119
NameHUSKYSAT-1
Epoch Orbit851
Epoch Day87.28223709
Epoch Year2020
RAAN40.2965
Inclination51.6438
Eccentricity0.0012923
Argument of Perigee116.3949
Mean Anonmoly243.8361
Mean Motion15.33268405
Decay Rate2.411E-05
L11 45119U 19071J 20087.28223709 .00002411 00000-0 85323-4 0 9991
L22 45119 51.6438 40.2965 0012923 116.3949 243.8361 15.33268405 8513

Live tracking and technical data element details for HUSKYSAT-1 (NORAD 45119). HUSKYSAT-1 can be tracked NOW for your location showing map with azimuth and elevation plus other details from your city location.

Track the satellite on the map from your city or location and see movement details for azimuth, elevation, latitude, longitude, range, height, and movement on the map or in text.







IsCatalogInMostPopularTable: catalog: 45119, numindb: 16
Update: records affected: 1



GetName: 45119 HUSKYSAT-1

Hit Count: updated at: Sat, 28 Mar 2020 19:50:02 GMT